Location: Charlottesville
(38.0290°N, 78.4770°W)
Time: 09:43:00
(UTC-04:00)

Envisat - Pass Details

Date: 14 October 2017
Orbit: 764 x 766 km, 98.2° (Epoch: 23 October)

Event Time Altitude Azimuth Distance (km) Brightness Sun altitude
Exits shadow 20:20:00 27° 41° (NE) 1,434 4.1 -21.0°
Drops below altitude 10° 20:23:07 10° 8° (N) 2,308 5.5 -21.6°
Sets 20:25:38 0° 359° (N) 3,238 6.3 -22.1°
